Flag Weather past 2 weeks in Kassel, Hesse, Germany

Now
52 °F

Fog.


Feels Like: 51 °F
Forecast: 48 / 56 °F
Wind: 3 mph from Southeast

Location: Kassel / Calden

Current Time: Oct 30, 2014 at 8:14:31 PM

Latest Report: Oct 30, 2014 at 7:50 PM


Visibility: 3 mi

Pressure: 30.24 "Hg

Humidity: 94%

Dew point: 50 °F

Location of KasselLocation

Historic Weather in Kassel — Graph

°F

Kassel temperature yesterday

Maximum temperature yesterday: 52 °F (at 12:50 PM)
Minimum temperature yesterday: 34 °F (at 7:20 AM)
Average temperature yesterday: 46 °F

Past Weeks' High & Low Weather Summary

 TemperatureHumidityPressure
High68 °F (Oct 19, 2:50 PM)100% (Oct 16, 5:50 AM)30.33 "Hg (Oct 16, 5:50 AM)
Low34 °F (Oct 29, 7:20 AM)63% (Oct 24, 2:20 PM)29.47 "Hg (Oct 21, 5:50 PM)
Average52 °F84%30.05 "Hg
* Reported Oct 15 7:20 PM — Oct 30 6:50 PM, Kassel, Weather by CustomWeather, © 2014

Note: Actual official high and low records may vary slightly from our data, if they occured in-between our weather recording intervals... More about our weather records

Advertising

Kassel weather history for previous 24 hours

 ConditionsComfort  
Time TempWeatherWind HumidityBarometerVisibility
6:50 PM
Oct 30
52 °FFog.3 mph94%30.24 "Hg3 mi
6:20 PM52 °FFog.1 mph94%30.24 "Hg2 mi
5:50 PM52 °FFog.1 mph94%30.24 "Hg2 mi
5:20 PM52 °FFog.5 mph94%30.24 "Hg2 mi
4:50 PM52 °FFog.5 mph94%30.24 "Hg3 mi
4:20 PM54 °FFog.6 mph88%30.24 "Hg3 mi
3:50 PM54 °FFog.7 mph88%30.24 "Hg3 mi
3:20 PM54 °FFog.6 mph88%30.24 "Hg3 mi
2:50 PM52 °FFog.7 mph94%30.24 "Hg3 mi
2:20 PM52 °FFog.8 mph94%30.24 "Hg3 mi
1:50 PM52 °FFog.7 mph94%30.24 "Hg3 mi
1:20 PM52 °FFog.6 mph94%30.24 "Hg3 mi
12:50 PM52 °FFog.6 mph88%30.24 "Hg3 mi
12:20 PM52 °FFog.7 mph88%30.24 "Hg2 mi
11:50 AM50 °FFog.7 mph94%30.24 "Hg2 mi
11:20 AM50 °FFog.5 mph94%30.24 "Hg2 mi
10:50 AM50 °FFog.6 mph94%30.24 "Hg2 mi
10:20 AM48 °FFog.7 mph100%30.24 "Hg2 mi
9:50 AM48 °FFog.5 mph100%30.24 "Hg1 mi
9:20 AM48 °FFog.5 mph94%30.24 "Hg1 mi
8:50 AM48 °FLow clouds.5 mph94%30.21 "Hg1 mi
8:20 AM46 °FFog.3 mph100%30.21 "Hg1 mi
7:50 AM46 °FFog.5 mph100%30.21 "Hg1 mi
7:20 AM46 °FFog.3 mph100%30.21 "Hg1 mi
6:50 AM46 °FFog.3 mph100%30.18 "Hg1 mi
6:20 AM46 °FFog.3 mph100%30.18 "Hg1 mi
5:50 AM46 °FFog.3 mph100%30.18 "Hg1 mi
9:50 PM
Oct 29
46 °FLight rain. Passing clouds.2 mph100%30.12 "Hg1 mi
9:20 PM46 °FRain. Fog.2 mph100%30.12 "Hg1 mi
8:50 PM46 °FFog.3 mph100%30.12 "Hg2 mi
8:20 PM46 °FLight rain. Fog.2 mph93%30.09 "Hg2 mi
Weather by CustomWeather, © 2014

See weather overviewHow to use our weather pages